Location: Nakusp
(50.2330°N, 117.8000°W)
Time: 12:22:34
(UTC-07:00)

Daily predictions for brighter satellites

Satellite Brightness Start Highest point End
(mag) Time Altitude Azimuth Time Altitude Azimuth Time Altitude Azimuth
CZ-3A R/B -0.5 21:56:42 10° NW 21:57:42 36° NNE 21:58:50 10° E
Abrixas rocket 4.1 21:57:35 10° WSW 21:59:53 18° SSW 22:02:11 10° SSE
H-2A R/B 2.2 21:58:47 10° SSE 22:04:09 81° ENE 22:09:39 10° NNW
Lacrosse 5 3.5 22:01:07 10° WNW 22:05:10 24° SW 22:09:12 10° S
Cosmos 2151 3.4 22:05:11 10° SSE 22:09:18 47° E 22:13:28 10° NNE
SL-08 RB Rocket 3.9 22:04:53 10° S 22:09:28 74° WSW 22:14:08 10° NNW
SPOT 5 3.3 22:04:34 10° S 22:09:30 69° WSW 22:14:44 10° NNW
Cosmos 1408 Rocket 4.3 22:07:57 10° SSW 22:12:11 53° WNW 22:16:28 10° N
Cosmos 1726 3.5 22:11:35 10° NNW 22:14:59 35° W 22:18:21 10° SSW
Cosmos 1626 2.8 22:12:44 10° SSE 22:16:13 38° E 22:19:42 10° NNE
Cosmos 1356 3.7 22:13:06 10° S 22:16:30 51° E 22:19:55 10° NNE
Cosmos 1703 3.9 22:14:41 10° SSE 22:18:27 41° E 22:22:13 10° NNE
Landsat 7 3.9 22:14:05 10° SSE 22:18:50 78° ENE 22:23:37 10° NNW
Tiangong 1 3.0 22:18:28 10° SW 22:19:45 12° SSW 22:20:43 11° S
Cosmos 2123 Rocket 4.1 22:14:21 10° SSW 22:20:33 82° W 22:26:50 10° N
Abrixas 3.5 22:23:16 10° SSW 22:25:24 21° SSE 22:27:34 10° ESE
Cosmos 1763 Rocket 4.4 22:26:27 10° NW 22:31:14 41° WSW 22:35:57 10° S
Cosmos 1300 4.3 22:28:07 10° NNW 22:31:34 31° W 22:34:58 10° SSW
Cosmos 841 Rocket 4.1 22:26:33 10° NNW 22:31:39 51° WSW 22:36:40 10° S
Cosmos 1354 Rocket 4.3 22:26:52 10° S 22:31:54 50° ESE 22:36:57 10° NNE
Cosmos 1500 Rocket 3.6 22:29:03 10° S 22:33:31 85° W 22:38:00 10° N
Terra 1.9 22:29:25 12° SSE 22:33:46 77° ENE 22:38:33 10° NNW
PSLV R/B 4.0 22:32:07 15° SE 22:34:02 33° ENE 22:36:40 10° N
Cosmos 304 Rocket 3.8 22:31:28 10° NNW 22:36:16 77° WSW 22:40:25 14° SSE
CZ-3B DEB 4.4 22:25:15 10° WNW 22:36:20 72° N 22:49:21 10° E
Cosmos 2285 Rocket 4.1 22:30:29 10° NNW 22:36:52 84° WSW 22:42:35 13° SSE
Meteor 1-11 4.3 22:32:55 10° S 22:38:46 89° E 22:44:36 10° NNE
Cosmos 1486 Rocket 4.2 22:36:02 10° SSW 22:41:19 80° WNW 22:46:41 10° NNE
IGS 5A 3.4 22:39:22 14° SSE 22:42:54 89° E 22:47:06 10° NNW
Cosmos 2263 Rocket 2.1 22:38:17 10° SSW 22:43:49 77° ESE 22:49:27 10° NNE
CARTOSAT-1 3.6 22:40:30 14° SSE 22:44:14 84° WSW 22:48:36 10° NNW
ATLAS 5 CENTAUR R/B 3.9 22:39:52 10° W 22:44:20 34° NNW 22:49:18 10° NE
DMSP B5D2-2 4.0 22:42:19 10° NNE 22:47:36 80° ESE 22:52:49 10° SSW
Cosmos 2084 Rocket 3.2 22:44:12 10° NW 22:48:02 78° NE 22:50:59 16° SE
Cosmos 1151 Rocket 4.0 22:44:38 10° NNW 22:48:50 44° W 22:52:59 10° SSW
Cosmos 1805 Rocket 3.8 22:49:44 16° SSE 22:53:02 51° E 22:57:15 10° NNE
Cosmos 1633 Rocket 4.0 22:54:01 17° SE 22:56:39 32° E 23:00:33 10° NNE
COSMOS 2406 3.4 22:54:08 10° NNW 22:59:48 66° ENE 23:04:21 16° SE
Cosmos 2082 Rocket 4.3 22:57:36 10° N 23:01:44 20° NE 23:05:51 10° E
Cosmos 1464 Rocket 4.0 22:57:49 10° N 23:04:02 82° E 23:09:02 17° SSE
Cosmos 1455 2.7 23:00:36 10° NNW 23:04:24 57° W 23:07:19 16° S
H-2A R/B 2.2 23:01:49 17° S 23:05:05 68° WSW 23:09:18 10° NNW
USA 234 3.3 22:58:41 10° ENE 23:05:09 60° SE 23:11:36 10° SW
Cosmos 2058 3.8 23:03:58 10° SSW 23:08:03 50° WNW 23:12:12 10° N
Spot 4 3.9 23:08:10 18° SSE 23:11:46 89° WSW 23:16:40 10° NNW
SL-19 R/B 3.8 23:10:49 26° SE 23:12:14 61° ENE 23:15:16 10° N
SL-24 R/B - RUBIN 2 4.0 23:06:54 10° NW 23:12:37 87° SW 23:16:18 19° SE
Cosmos 1844 Rocket 3.4 23:13:19 19° SSE 23:16:37 35° ESE 23:21:38 10° NE
CZ-4C R/B 2.6 23:16:27 15° S 23:20:32 43° ESE 23:26:14 10° NE
Cosmos 540 Rocket 4.5 23:19:38 10° NW 23:24:23 38° WSW 23:28:08 15° SSW
CZ-4B R/B 3.6 23:20:23 10° NNE 23:25:41 71° ESE 23:29:37 18° S
Cosmos 1503 Rocket 4.4 23:22:47 10° SW 23:27:55 63° WNW 23:33:04 10° NNE
Cosmos 1470 Rocket 4.4 23:27:32 22° SE 23:29:48 37° E 23:33:55 10° NNE
BREEZE-M DEB 4.4 23:22:18 10° SW 23:33:50 40° SSE 23:37:30 10° E
Cosmos 1869 3.8 23:30:31 10° NNW 23:34:22 52° W 23:36:46 21° SSW
SL-27 R/B 3.7 23:32:30 10° N 23:35:31 30° ENE 23:37:21 18° ESE
Cosmos 968 Rocket 3.6 23:32:30 19° S 23:36:10 61° ESE 23:41:22 10° NNE
Cosmos 2242 Rocket 3.6 23:31:34 10° N 23:36:12 83° ENE 23:38:55 24° SSE
Cosmos 1933 3.5 23:35:02 10° N 23:39:07 64° ENE 23:41:15 26° SSE
Cosmos 1892 4.4 23:40:03 18° ESE 23:41:30 22° E 23:44:32 10° NE
CZ-2C R/B 3.3 23:37:27 10° NNE 23:42:24 38° E 23:45:10 22° SSE
H-2A R/B 4.3 23:40:38 10° SW 23:44:13 18° W 23:47:53 10° NW
Meteor 2-10 Rocket 3.7 23:39:57 10° N 23:45:22 78° ENE 23:48:56 23° SSE
Sich 1 3.1 23:42:47 19° SSW 23:45:46 71° WNW 23:50:03 10° N
Tsikada Rocket 4.1 23:41:14 20° S 23:45:47 72° E 23:52:05 10° NNE
Cosmos 1315 Rocket 3.7 23:49:27 25° SE 23:50:55 33° E 23:54:31 10° NNE
Cosmos 1400 Rocket 2.9 23:49:48 28° S 23:51:53 65° E 23:56:01 10° NNE
CZ-4C R/B 4.3 23:51:51 22° SSW 23:54:24 46° W 23:58:42 10° NNW
